This demonstration page uses our WeatherBlox Daily Observations layout. Learn more.

Left ArrowRight Arrow

Hourly Observations for February 21, 2020

Temp ( °F °C ) Dew Point ( °F °C ) Humidity (%) Winds ( mph kmh ) Pressure ( in mb ) Visibility ( mi km ) Precip ( " mm )
12:53 am 00:53 Clear 17 -8.3 12 -11.1 80 80 NNW 5 7 30.66 1038 10 16 N/A
1:53 am 01:53 Clear 16 -8.9 11 -11.7 80 80 NNW 5 7 30.66 1038 10 16 N/A
2:53 am 02:53 Clear 18 -7.8 11 -11.7 74 74 NNW 5 7 30.66 1038 10 16 N/A
3:53 am 03:53 Clear 17 -8.3 12 -11.1 80 80 NNW 6 9 30.65 1038 10 16 N/A
4:53 am 04:53 Clear 16 -8.9 12 -11.1 84 84 NNW 5 7 30.66 1038 10 16 N/A
5:53 am 05:53 Clear 15 -9.4 13 -10.6 91 91 N N/A 30.67 1039 10 16 N/A
6:53 am 06:53 Clear 14 -10 12 -11.1 92 92 N N/A 30.68 1039 10 16 N/A
7:53 am 07:53 Sunny 15 -9.4 12 -11.1 88 88 N N/A 30.69 1039 9 14 N/A
8:53 am 08:53 Sunny 21 -6.1 15 -9.4 78 78 NW 5 7 30.72 1040 10 16 N/A
9:53 am 09:53 Sunny 23 -5 14 -10 68 68 N N/A 30.72 1040 10 16 N/A
10:53 am 10:53 Sunny 26 -3.3 12 -11.1 55 55 VRB 3 6 30.71 1040 10 16 N/A
11:53 am 11:53 Sunny 29 -1.7 6 -14.4 38 38 W 6 9 30.70 1040 10 16 N/A
12:53 pm 12:53 Sunny 31 -0.6 6 -14.4 35 35 W 6 9 30.68 1039 10 16 N/A
1:53 pm 13:53 Sunny 34 1.1 9 -12.8 35 35 WNW 8 13 30.64 1038 10 16 N/A
2:53 pm 14:53 Sunny 36 2.2 8 -13.3 31 31 N N/A 30.60 1036 10 16 N/A
3:53 pm 15:53 Sunny 37 2.8 5 -15 26 26 SW 8 13 30.58 1036 10 16 N/A
4:53 pm 16:53 Sunny 38 3.3 6 -14.4 26 26 VRB 5 7 30.57 1035 10 16 N/A
5:53 pm 17:53 Sunny 36 2.2 8 -13.3 31 31 W 7 11 30.56 1035 10 16 N/A
6:53 pm 18:53 Clear 30 -1.1 13 -10.6 49 49 SW 3 6 30.56 1035 10 16 N/A
7:53 pm 19:53 Clear 25 -3.9 15 -9.4 66 66 N N/A 30.56 1035 10 16 N/A
8:53 pm 20:53 Clear 23 -5 14 -10 68 68 N N/A 30.54 1034 10 16 N/A
9:53 pm 21:53 Clear 22 -5.6 15 -9.4 75 75 N N/A 30.53 1034 10 16 N/A
10:53 pm 22:53 Clear 21 -6.1 16 -8.9 81 81 N N/A 30.51 1033 10 16 N/A
11:53 pm 23:53 Clear 20 -6.7 13 -10.6 74 74 N N/A 30.49 1033 10 16 N/A

Powered by AerisWeather